User: anonymous   Login
Location: NJAA Observatory
(40.6819°N, 74.8979°W)
Time: 00:49:44
(UTC-04:00)
Language:

S-56A Canister/Altair - Orbit

View from above orbital plane
View from above orbital plane
View from above satellite
View from above satellite

Ground track
Ground track

The orbit data is extracted from the following two-line orbital elements,

1    82U 61004B   17235.59017968 +.00000080 +00000-0 +10419-3 0  9990
2    82 038.8554 047.6467 1171041 158.7025 206.6825 12.25859183681538
Epoch (UTC): 23 August 2017 14:09:51
Eccentricity: 0.1171041
inclination: 38.8554°
perigee height: 637 km
apogee height: 2497 km
right ascension of ascending node: 47.6467°
argument of perigee: 158.7025°
revolutions per day: 12.25859183
mean anomaly at epoch: 206.6825°
orbit number at epoch: 68153

The dashed part of the orbit path shows where the satellite is in the earth's shadow,  

DLR